#timestamp,LO_Frequency,Hit,StdDev 
1510390815.5,286046990.8,N
1510390835.3,286046992.2,N
1510390855.2,286046994.8,N
1510390875.9,286046997.1,N
1510390895.7,286047002.3,N
1510390915.6,286046998.5,N
1510390935.4,286046998.2,N
1510390955.2,286047000.9,N
1510390975.1,286047005.0,N
1510390976.0,286047005.0,N
1510390995.8,286047008.9,N
1510391015.6,286047006.1,N
1510391035.4,286047006.7,N
1510391055.3,286047010.8,N
1510391075.1,286047010.2,N
1510391095.8,286047006.1,N
1510391115.7,286047010.3,N
1510391135.5,286047014.0,N
1510391155.3,286047015.1,N
1510391175.2,286047011.0,N
1510391195.9,286047009.7,N
1510391215.7,286047006.5,N
1510391235.6,286047012.2,N
1510391255.4,286047012.9,N
1510391275.2,286047014.3,N
1510391295.1,286047014.9,N
1510391296.0,286047014.9,N
1510391315.8,286047018.7,N
1510391335.6,286047013.1,N
1510391355.4,286047016.3,N
1510391375.3,286047014.8,N
1510391395.1,286047013.1,N
1510391415.8,286047009.7,N
1510391435.7,286047009.4,N
1510391455.5,286047012.5,N
1510391475.3,286047014.7,N
1510391495.2,286047020.0,Y
1510391515.0,286047011.2,P
1510391515.9,286047011.2,P
1510391535.7,286047008.4,P
1510391555.6,286047005.8,Y
1510391575.4,286046997.0,P
1510391595.2,286046996.6,N
1510391615.1,286046999.6,N
1510391616.0,286046999.6,N
1510391635.8,286047005.9,N
1510391655.6,286047001.3,N
1510391675.5,286046997.7,N
1510391695.3,286046999.3,N
1510391715.1,286047001.2,N
1510391735.9,286047001.9,N
1510391755.7,286047000.5,N
1510391775.5,286046996.6,N
1510391795.4,286046996.0,N
1510391815.2,286046996.0,N
1510391835.0,286046992.5,N
1510391835.9,286046992.5,N
1510391855.8,286046992.7,N
1510391875.6,286046993.0,N
1510391895.4,286046993.7,N
1510391915.2,286046997.9,N
1510391935.1,286046996.0,N
1510391936.0,286046996.0,N
1510391955.8,286046990.1,N
1510391975.6,286046989.9,N
1510391995.5,286046990.3,N
1510392015.3,286046990.2,N
1510392035.1,286046992.7,N
1510392055.9,286046993.3,N
1510392075.7,286046992.5,N
1510392095.5,286046992.7,N
1510392115.4,286046993.9,N
1510392135.2,286046995.0,N
1510392155.0,286046999.0,N
1510392155.9,286046999.0,N
1510392175.8,286046997.9,N
1510392195.6,286046996.5,N
1510392215.4,286046995.5,N
1510392235.3,286046998.2,N
1510392255.1,286046998.1,N
1510392256.0,286046998.1,N
1510392275.8,286046999.1,N
1510392295.6,286046994.1,N
1510392315.5,286046993.1,N
1510392335.3,286046993.0,N
1510392355.1,286046996.3,N
1510392375.9,286046989.2,Y
1510392395.7,286046992.8,P
1510392415.5,286046993.6,P
1510392435.4,286046992.2,P
1510392455.2,286046993.4,Y
1510392475.0,286047002.1,P
1510392476.0,286047002.1,N
1510392495.8,286047000.1,N
1510392515.6,286046996.5,N
1510392535.4,286047000.5,N
1510392555.3,286047001.7,N
1510392575.1,286047004.6,N
1510392595.8,286047007.0,N
1510392615.7,286047003.4,N
1510392635.5,286047004.9,N
1510392655.3,286047007.4,N
1510392675.2,286047005.4,N
1510392695.9,286047005.9,N
1510392715.7,286047004.2,N
1510392735.6,286047004.4,N
1510392755.4,286047007.4,N
1510392775.2,286047010.4,N
1510392795.0,286047009.0,N
1510392796.0,286047009.0,N
1510392815.8,286047010.8,N
1510392835.6,286047008.9,N
1510392855.4,286047003.6,N
1510392875.3,286046999.9,N
1510392895.1,286046999.9,N
1510392915.8,286047001.0,N
1510392935.7,286046999.6,N
1510392955.5,286046993.9,N
1510392975.3,286046993.9,N
1510392995.2,286046993.6,N
1510393015.9,286046991.9,N
1510393035.7,286046993.2,N
1510393055.6,286046989.0,N
1510393075.4,286046990.0,N
1510393095.2,286046990.5,N
1510393115.0,286046986.1,N
1510393116.0,286046986.1,N
1510393135.8,286046989.9,N
1510393155.6,286046987.2,N
1510393175.4,286046991.9,N
1510393195.3,286046994.1,N
1510393215.1,286046990.1,N
1510393235.8,286046992.2,N
1510393255.7,286046986.9,N
1510393275.5,286046987.5,N
1510393295.3,286046989.8,N
1510393315.2,286046987.5,N
1510393335.9,286046985.4,N
1510393355.7,286046987.4,N
1510393375.6,286046985.5,N
1510393395.4,286046984.5,N
1510393415.2,286046984.0,N
1510393435.1,286046988.4,N
1510393436.0,286046988.4,N
1510393455.8,286046988.8,N
1510393475.6,286046987.9,Y
1510393495.5,286046996.3,P
1510393515.3,286046996.4,N
1510393535.1,286046995.3,N
1510393555.9,286046995.7,N
1510393575.7,286046994.9,N
1510393595.5,286046993.7,N
1510393615.3,286046993.9,N
1510393635.2,286046996.3,N
1510393655.0,286046997.1,N
1510393655.9,286046997.1,N
1510393675.8,286046993.3,Y
1510393695.6,286046996.6,P
1510393715.4,286047000.8,N
1510393735.3,286047003.9,N
1510393755.1,286047001.5,N
1510393756.0,286047001.5,N
1510393775.8,286047001.6,N
1510393795.7,286047005.7,N
1510393815.5,286047006.9,N
1510393835.3,286047006.1,N
1510393855.1,286047006.8,N
1510393875.9,286047010.8,N
1510393895.7,286047007.0,N
1510393915.5,286047005.6,N
1510393935.4,286047006.0,N
1510393955.2,286047006.3,N
1510393975.0,286047003.3,N
1510393975.9,286047003.3,N
1510393995.8,286047004.1,N
1510394015.6,286047004.0,N
1510394035.4,286047002.7,N
1510394055.3,286047001.3,N
1510394075.1,286047002.0,N
1510394095.8,286047003.9,N
1510394115.7,286047004.2,N
1510394135.5,286047002.1,N
1510394155.3,286047001.8,N
1510394175.2,286047002.0,N
1510394195.9,286046999.9,N
1510394215.7,286046998.9,N
1510394235.6,286047000.8,N
1510394255.4,286047000.6,N
1510394275.2,286047002.2,N
1510394295.0,286046998.2,N
1510394296.0,286046998.2,N
1510394315.8,286046996.6,N
1510394335.6,286047000.3,N
1510394355.4,286046999.7,N
1510394375.3,286046998.2,N
1510394395.1,286046999.3,N
